• In Hungary
  • List of Countries
  • For 7 days
  • Water Temperature
  • Satellite Maps
  • Weather Map
  • News
  • Weather Widgets
  • user-avatar
    Login

    Hourly Weather Frenstat pod Radhostem

    Today, 23 October, Monday

    Time Temperature Precipitation Wind Pressure Humidity
    00:00 +8°C° 0.3 mm 1 mps 721 mmHg 92%
    01:00 +7°C° 0 mm 2 mps 720 mmHg 93%
    02:00 +7°C° 0.4 mm 2 mps 720 mmHg 93%
    03:00 +7°C° 0.4 mm 2 mps 720 mmHg 93%
    04:00 +7°C° 0.4 mm 3 mps 719 mmHg 93%
    05:00 +7°C° 0.7 mm 3 mps 719 mmHg 93%
    06:00 +7°C° 0.7 mm 3 mps 720 mmHg 92%
    07:00 +5°C° 0 mm 3 mps 720 mmHg 92%
    08:00 +6°C° 0.5 mm 4 mps 720 mmHg 90%
    09:00 +6°C° 0.5 mm 4 mps 720 mmHg 89%
    10:00 +6°C° 0.5 mm 5 mps 720 mmHg 87%
    11:00 +7°C° 0.6 mm 5 mps 720 mmHg 87%
    12:00 +7°C° 0.6 mm 5 mps 720 mmHg 87%
    13:00 +7°C° 0 mm 4 mps 720 mmHg 87%
    14:00 +7°C° 0.5 mm 4 mps 720 mmHg 88%
    15:00 +7°C° 0.5 mm 4 mps 721 mmHg 88%
    16:00 +7°C° 0.5 mm 4 mps 721 mmHg 89%
    17:00 +7°C° 0.3 mm 4 mps 721 mmHg 90%
    18:00 +6°C° 0.3 mm 4 mps 722 mmHg 90%
    19:00 +6°C° 0.3 mm 5 mps 722 mmHg 91%
    20:00 +6°C° 0.2 mm 5 mps 723 mmHg 91%
    21:00 +6°C° 0.2 mm 5 mps 723 mmHg 91%
    22:00 +6°C° 0.2 mm 5 mps 723 mmHg 91%
    23:00 +6°C° 0.1 mm 5 mps 724 mmHg 91%

    Tomorrow, 24 October, Tuesday

    Time Temperature Precipitation Wind Pressure Humidity
    00:00 +6°C° 0.1 mm 4 mps 724 mmHg 91%
    01:00 +6°C° 0.1 mm 4 mps 725 mmHg 92%
    02:00 +6°C° 0.1 mm 4 mps 725 mmHg 92%
    03:00 +6°C° 0.1 mm 4 mps 725 mmHg 92%
    04:00 +6°C° 0.1 mm 4 mps 726 mmHg 92%
    05:00 +6°C° 0 mm 4 mps 726 mmHg 92%
    06:00 +6°C° 0 mm 4 mps 726 mmHg 92%
    07:00 +5°C° 0 mm 4 mps 727 mmHg 92%
    08:00 +6°C° 0 mm 4 mps 727 mmHg 90%
    09:00 +6°C° 0 mm 4 mps 728 mmHg 87%
    10:00 +7°C° 0 mm 4 mps 728 mmHg 84%
    11:00 +7°C° 0 mm 4 mps 728 mmHg 82%
    12:00 +7°C° 0 mm 4 mps 728 mmHg 80%
    13:00 +7°C° 0 mm 4 mps 729 mmHg 78%
    14:00 +8°C° 0 mm 3 mps 729 mmHg 79%
    15:00 +8°C° 0 mm 3 mps 729 mmHg 81%
    16:00 +7°C° 0 mm 3 mps 729 mmHg 82%
    17:00 +6°C° 0 mm 2 mps 729 mmHg 85%
    18:00 +6°C° 0 mm 2 mps 729 mmHg 88%
    19:00 +5°C° 0 mm 2 mps 730 mmHg 91%
    20:00 +5°C° 0 mm 1 mps 730 mmHg 92%
    21:00 +5°C° 0 mm 1 mps 730 mmHg 92%
    22:00 +5°C° 0 mm 1 mps 730 mmHg 93%
    23:00 +5°C° 0 mm 1 mps 730 mmHg 92%

    Day after tomorrow, 25 October, Wednesday

    Time Temperature Precipitation Wind Pressure Humidity
    00:00 +5°C° 0 mm 1 mps 730 mmHg 91%
    01:00 +5°C° 0 mm 1 mps 730 mmHg 91%
    02:00 +4°C° 0 mm 1 mps 730 mmHg 91%
    03:00 +4°C° 0 mm 1 mps 729 mmHg 90%
    04:00 +4°C° 0 mm 1 mps 729 mmHg 90%
    05:00 +4°C° 0 mm 1 mps 729 mmHg 89%
    06:00 +4°C° 0 mm 1 mps 729 mmHg 87%
    07:00 +5°C° 0 mm 1 mps 729 mmHg 86%
    08:00 +7°C° 0 mm 1 mps 729 mmHg 81%
    09:00 +8°C° 0 mm 2 mps 730 mmHg 76%
    10:00 +10°C° 0 mm 2 mps 730 mmHg 71%
    11:00 +12°C° 0 mm 2 mps 729 mmHg 73%
    12:00 +12°C° 0 mm 2 mps 729 mmHg 74%
    13:00 +12°C° 0 mm 3 mps 729 mmHg 76%
    14:00 +12°C° 0 mm 2 mps 729 mmHg 80%
    15:00 +12°C° 0 mm 2 mps 729 mmHg 83%
    16:00 +12°C° 0 mm 2 mps 729 mmHg 87%
    17:00 +10°C° 0 mm 2 mps 729 mmHg 88%
    18:00 +9°C° 0 mm 2 mps 729 mmHg 90%
    19:00 +9°C° 0 mm 2 mps 730 mmHg 92%
    20:00 +9°C° 0 mm 2 mps 730 mmHg 92%
    21:00 +9°C° 0 mm 2 mps 730 mmHg 92%
    22:00 +9°C° 0 mm 2 mps 730 mmHg 93%
    23:00 +9°C° 0 mm 2 mps 730 mmHg 93%

    26 October, Thursday

    Time Temperature Precipitation Wind Pressure Humidity
    00:00 +8°C° 0 mm 2 mps 730 mmHg 94%
    01:00 +8°C° 0 mm 2 mps 730 mmHg 94%
    02:00 +8°C° 0 mm 2 mps 730 mmHg 94%
    03:00 +9°C° 0 mm 1 mps 730 mmHg 94%
    04:00 +9°C° 0 mm 1 mps 730 mmHg 94%
    05:00 +9°C° 0 mm 1 mps 730 mmHg 94%
    06:00 +9°C° 0 mm 1 mps 730 mmHg 94%
    07:00 +9°C° 0 mm 1 mps 730 mmHg 95%
    08:00 +10°C° 0 mm 2 mps 730 mmHg 90%
    09:00 +12°C° 0 mm 2 mps 730 mmHg 86%
    10:00 +13°C° 0 mm 2 mps 730 mmHg 82%
    11:00 +14°C° 0 mm 2 mps 730 mmHg 79%
    12:00 +14°C° 0 mm 3 mps 730 mmHg 76%
    13:00 +16°C° 0 mm 3 mps 729 mmHg 73%
    14:00 +14°C° 0 mm 3 mps 729 mmHg 76%
    15:00 +15°C° 0 mm 2 mps 729 mmHg 79%
    16:00 +14°C° 0 mm 2 mps 728 mmHg 82%
    17:00 +13°C° 0 mm 2 mps 728 mmHg 85%
    18:00 +12°C° 0 mm 2 mps 728 mmHg 88%
    19:00 +10°C° 0 mm 2 mps 728 mmHg 90%
    20:00 +10°C° 0 mm 2 mps 728 mmHg 91%
    21:00 +10°C° 0 mm 2 mps 727 mmHg 91%
    22:00 +10°C° 0 mm 2 mps 727 mmHg 91%
    23:00 +9°C° 0 mm 2 mps 727 mmHg 92%

    27 October, Friday

    Time Temperature Precipitation Wind Pressure Humidity
    00:00 +9°C° 0 mm 2 mps 726 mmHg 93%
    01:00 +9°C° 0 mm 2 mps 726 mmHg 93%
    02:00 +9°C° 0 mm 2 mps 726 mmHg 94%
    03:00 +9°C° 0 mm 2 mps 725 mmHg 94%
    04:00 +9°C° 0 mm 2 mps 725 mmHg 94%
    05:00 +9°C° 0 mm 2 mps 725 mmHg 94%
    06:00 +10°C° 0 mm 2 mps 724 mmHg 94%
    07:00 +10°C° 0 mm 2 mps 724 mmHg 94%
    08:00 +11°C° 0 mm 3 mps 724 mmHg 91%
    09:00 +11°C° 0 mm 3 mps 724 mmHg 88%
    10:00 +12°C° 0 mm 4 mps 723 mmHg 84%
    11:00 +12°C° 0.4 mm 4 mps 723 mmHg 83%
    12:00 +13°C° 0.4 mm 4 mps 722 mmHg 81%
    13:00 +13°C° 0.4 mm 4 mps 721 mmHg 80%
    14:00 +12°C° 1.7 mm 4 mps 721 mmHg 83%
    15:00 +11°C° 1.7 mm 4 mps 720 mmHg 86%
    16:00 +10°C° 1.7 mm 4 mps 720 mmHg 88%
    17:00 +9°C° 1.5 mm 3 mps 720 mmHg 88%
    18:00 +8°C° 1.5 mm 3 mps 720 mmHg 88%
    19:00 +7°C° 1.5 mm 3 mps 720 mmHg 88%
    20:00 +7°C° 0.7 mm 3 mps 720 mmHg 88%
    21:00 +6°C° 0.7 mm 4 mps 721 mmHg 88%
    22:00 +6°C° 0.7 mm 4 mps 721 mmHg 88%
    23:00 +5°C° 0.2 mm 4 mps 721 mmHg 88%

    28 October, Saturday

    Time Temperature Precipitation Wind Pressure Humidity
    00:00 +5°C° 0.2 mm 4 mps 721 mmHg 87%
    01:00 +5°C° 0.2 mm 4 mps 721 mmHg 87%
    02:00 +5°C° 0.5 mm 4 mps 720 mmHg 87%
    03:00 +6°C° 0.5 mm 5 mps 720 mmHg 87%
    04:00 +6°C° 0.5 mm 5 mps 720 mmHg 87%
    05:00 +5°C° 0.2 mm 5 mps 720 mmHg 87%
    06:00 +5°C° 0.2 mm 5 mps 721 mmHg 86%
    07:00 +5°C° 0.2 mm 5 mps 721 mmHg 86%
    08:00 +5°C° 0.1 mm 4 mps 721 mmHg 83%
    09:00 +6°C° 0.1 mm 4 mps 721 mmHg 80%
    10:00 +7°C° 0.1 mm 4 mps 721 mmHg 77%
    11:00 +7°C° 0.2 mm 5 mps 721 mmHg 74%
    12:00 +7°C° 0.2 mm 5 mps 721 mmHg 71%
    13:00 +8°C° 0.2 mm 5 mps 720 mmHg 68%
    14:00 +7°C° 0.2 mm 5 mps 720 mmHg 72%
    15:00 +7°C° 0.2 mm 4 mps 720 mmHg 75%
    16:00 +7°C° 0.2 mm 3 mps 719 mmHg 79%
    17:00 +7°C° 0.3 mm 3 mps 719 mmHg 82%
    18:00 +5°C° 0.3 mm 3 mps 719 mmHg 84%
    19:00 +5°C° 0.3 mm 3 mps 719 mmHg 87%
    20:00 +5°C° 0.3 mm 3 mps 719 mmHg 87%
    21:00 +5°C° 0.3 mm 3 mps 718 mmHg 88%
    22:00 +5°C° 0.3 mm 3 mps 718 mmHg 88%
    23:00 +5°C° 0.6 mm 3 mps 718 mmHg 89%

    29 October, Sunday

    Time Temperature Precipitation Wind Pressure Humidity
    00:00 +5°C° 0.6 mm 4 mps 717 mmHg 90%
    01:00 +5°C° 0.6 mm 4 mps 717 mmHg 90%
    02:00 +5°C° 0.9 mm 4 mps 717 mmHg 89%
    03:00 +5°C° 0.9 mm 4 mps 716 mmHg 87%
    04:00 +5°C° 0.9 mm 5 mps 716 mmHg 86%
    05:00 +5°C° 0.4 mm 5 mps 716 mmHg 86%
    06:00 +5°C° 0.4 mm 5 mps 717 mmHg 86%
    07:00 +3°C° 0.4 mm 5 mps 717 mmHg 86%
    08:00 +4°C° 0.2 mm 6 mps 718 mmHg 83%
    09:00 +4°C° 0.2 mm 6 mps 718 mmHg 80%
    10:00 +4°C° 0.2 mm 6 mps 719 mmHg 77%
    11:00 +5°C° 0.2 mm 6 mps 719 mmHg 75%
    12:00 +5°C° 0.2 mm 6 mps 719 mmHg 72%
    13:00 +5°C° 0.2 mm 6 mps 719 mmHg 70%
    14:00 +6°C° 0.1 mm 5 mps 719 mmHg 72%
    15:00 +6°C° 0.1 mm 4 mps 719 mmHg 75%
    16:00 +5°C° 0.1 mm 3 mps 719 mmHg 77%
    17:00 +6°C° 0 mm 2 mps 719 mmHg 80%
    18:00 +5°C° 0 mm 2 mps 719 mmHg 84%
    19:00 +4°C° 0 mm 2 mps 719 mmHg 87%
    20:00 +5°C° 0 mm 2 mps 718 mmHg 88%
    21:00 +5°C° 0 mm 2 mps 718 mmHg 89%
    22:00 +5°C° 0 mm 2 mps 718 mmHg 89%
    23:00 +5°C° 0.3 mm 2 mps 718 mmHg 90%
    Show more